Westhampton Beach, NY

3:39 PM EDT on September 26, 2016 (GMT -0400)
The Gabreski

Weather History for KFOK - April, 2013

Change the Weather History Date:

Thursday, April 25, 2013

  Actual Average Record
Temperature  
Mean Temperature 52 °F -  
Max Temperature 64 °F 58 °F 66 °F (2008)
Min Temperature 34 °F 37 °F 25 °F (2015)
Degree Days  
Heating Degree Days 14    
Growing Degree Days 2 (Base 50)    
Moisture  
Dew Point 37 °F    
Average Humidity 61    
Maximum Humidity 100    
Minimum Humidity 24    
Precipitation  
Precipitation 0.03 in - - ()
Sea Level Pressure  
Sea Level Pressure 30.12 in    
Wind  
Wind Speed 9 mph (West)    
Max Wind Speed 16 mph    
Max Gust Speed 23 mph    
Visibility 9 miles    
Events Rain    
Averages and records for this station are not official NWS values.
T = Trace of Precipitation, MM = Missing Value Source: NWS Daily Summary

Daily Weather History Graph

Daily Weather History Graph

Search for Another Location

Airport or City:

Trip Planner

Search our weather history database for the weather conditions in past years. The results will help you decide how hot, cold, wet, or windy it might be!

Date:

Astronomy

Apr. 25, 2013 Rise Set
Actual Time 5:56 AM EDT 7:40 PM EDT
Civil Twilight 5:27 AM EDT 8:10 PM EDT
Nautical Twilight 4:51 AM EDT 8:45 PM EDT
Astronomical Twilight 4:14 AM EDT 9:23 PM EDT
Moon 7:50 PM EDT (4/25) 5:37 AM EDT (4/25)
Length of Visible Light 14h 42m
Length of Day
13h 44m
Full, 100% of the Moon is Illuminated
Apr 25
Full
Apr 25
Full
May 2
Last Quarter
May 9
New
May 18
First Quarter

Hourly Weather History & Observations

Time (EDT) Temp. Windchill Dew Point Humidity Pressure Visibility Wind Dir Wind Speed Gust Speed Precip Events Conditions
12:30 AM 48.2 °F - 48.2 °F 100% 29.94 in 5.0 mi SSW 6.9 mph - N/A   Overcast
12:53 AM 50.0 °F - 48.0 °F 93% 29.93 in 6.0 mi SSW 8.1 mph 16.1 mph N/A   Overcast
1:53 AM 51.1 °F - 48.0 °F 89% 29.93 in 6.0 mi SW 11.5 mph 17.3 mph N/A   Overcast
2:53 AM 51.1 °F - 48.0 °F 89% 29.93 in 7.0 mi SW 10.4 mph 18.4 mph N/A   Overcast
3:53 AM 51.1 °F - 48.0 °F 89% 29.93 in 5.0 mi WSW 9.2 mph - N/A   Overcast
4:12 AM 51.8 °F - 48.2 °F 88% 29.94 in 5.0 mi WSW 8.1 mph - N/A   Overcast
4:53 AM 52.0 °F - 48.9 °F 89% 29.98 in 7.0 mi West 6.9 mph - N/A   Overcast
5:53 AM 53.1 °F - 39.0 °F 59% 30.01 in 10.0 mi WNW 11.5 mph 21.9 mph 0.00 in Rain Light Rain
6:53 AM 52.0 °F - 36.0 °F 54% 30.06 in 10.0 mi NW 12.7 mph - 0.00 in   Overcast
7:53 AM 46.9 °F - 42.1 °F 83% 30.13 in 10.0 mi NW 4.6 mph - 0.03 in   Overcast
8:53 AM 50.0 °F - 39.9 °F 68% 30.15 in 10.0 mi NW 11.5 mph 19.6 mph N/A   Mostly Cloudy
9:53 AM 53.1 °F - 34.0 °F 48% 30.15 in 10.0 mi North 15.0 mph 23.0 mph N/A   Clear
10:53 AM 55.0 °F - 33.1 °F 43% 30.17 in 10.0 mi WNW 16.1 mph 23.0 mph N/A   Clear
11:53 AM 57.0 °F - 32.0 °F 39% 30.18 in 10.0 mi NNW 16.1 mph - N/A   Clear
12:53 PM 59.0 °F - 30.9 °F 35% 30.18 in 10.0 mi NW 12.7 mph 18.4 mph N/A   Clear
1:53 PM 60.1 °F - 28.9 °F 31% 30.18 in 10.0 mi North 6.9 mph 19.6 mph N/A   Clear
2:53 PM 62.1 °F - 27.0 °F 26% 30.17 in 10.0 mi WNW 11.5 mph 19.6 mph N/A   Clear
3:53 PM 64.0 °F - 26.1 °F 24% 30.17 in 10.0 mi North 8.1 mph 16.1 mph N/A   Clear
4:53 PM 59.0 °F - 30.0 °F 33% 30.18 in 10.0 mi SW 9.2 mph - N/A   Clear
5:53 PM 57.9 °F - 27.0 °F 31% 30.19 in 10.0 mi SW 10.4 mph - N/A   Clear
6:53 PM 55.0 °F - 32.0 °F 42% 30.20 in 10.0 mi South 4.6 mph - N/A   Clear
7:53 PM 50.0 °F - 34.0 °F 54% 30.22 in 10.0 mi SSW 3.5 mph - N/A   Clear
8:53 PM 46.0 °F 44.8 °F 35.1 °F 66% 30.25 in 10.0 mi SSW 3.5 mph - N/A   Clear
9:53 PM 43.0 °F - 34.0 °F 71% 30.27 in 10.0 mi Calm Calm - N/A   Clear
10:53 PM 39.0 °F - 30.9 °F 73% 30.28 in 10.0 mi Calm Calm - N/A   Clear
11:53 PM 34.0 °F - 27.0 °F 75% 30.30 in 10.0 mi Calm Calm - N/A   Clear